Flag for Mexico Weather past 2 weeks in Ojinaga, Chihuahua, Mexico

Now
72 °F

Passing clouds.


Feels Like: 76 °F
Forecast: 74 / 100 °F
Wind: No wind

Location: Marfa Municipal Airport

Current Time: Jul 28, 2014 at 5:48:30 AM

Latest Report: Jul 28, 2014 at 5:15 AM


Visibility: 10 mi

Pressure: 30.28 "Hg

Humidity: 57%

Dew point: 55 °F

Location of OjinagaLocation

Historic Weather in Ojinaga — Graph

°F

Ojinaga temperature yesterday

Maximum temperature yesterday: 93 °F (at 1:55 PM)
Minimum temperature yesterday: 63 °F (at 4:35 AM)
Average temperature yesterday: 79 °F

Past Weeks' High & Low Weather Summary

 TemperatureHumidityPressure
High93 °F (Jul 27, 1:55 PM)100% (Jul 17, 10:55 PM)30.35 "Hg (Jul 17, 10:55 PM)
Low57 °F (Jul 13, 5:35 AM)20% (Jul 25, 3:35 PM)30.02 "Hg (Jul 16, 5:55 PM)
Average75 °F58%30.19 "Hg
* Reported Jul 13 4:15 AM — Jul 28 4:35 AM, Ojinaga, Weather by CustomWeather, © 2014

Note: Actual official high and low records may vary slightly from our data, if they occured in-between our weather recording intervals... More about our weather records

Advertising

Ojinaga weather history for previous 24 hours

 ConditionsComfort  
Time TempWeatherWind HumidityBarometerVisibility
4:35 AM
Jul 28
70 °FPassing clouds.7 mph64%30.28 "Hg10 mi
4:15 AM70 °FPassing clouds.5 mph60%30.27 "Hg10 mi
3:55 AM70 °FMostly cloudy.5 mph60%30.26 "Hg10 mi
3:35 AM70 °FPassing clouds.6 mph60%30.26 "Hg10 mi
3:15 AM72 °FPassing clouds.6 mph57%30.26 "Hg10 mi
2:55 AM73 °FPassing clouds.5 mph53%30.25 "Hg10 mi
2:35 AM72 °FPassing clouds.5 mph57%30.26 "Hg10 mi
2:15 AM72 °FClear.6 mph57%30.26 "Hg10 mi
1:55 AM72 °FPassing clouds.3 mph57%30.25 "Hg10 mi
1:35 AM72 °FPassing clouds.6 mph57%30.26 "Hg10 mi
1:15 AM72 °FClear.6 mph57%30.26 "Hg10 mi
12:55 AM73 °FClear.7 mph53%30.26 "Hg10 mi
12:35 AM73 °FClear.6 mph53%30.26 "Hg10 mi
12:15 AM75 °FPassing clouds.5 mph54%30.26 "Hg10 mi
11:55 PM
Jul 27
75 °FClear.5 mph54%30.26 "Hg10 mi
11:35 PM75 °FClear.3 mph54%30.25 "Hg10 mi
11:15 PM75 °FClear.3 mph54%30.25 "Hg10 mi
10:55 PM75 °FPassing clouds.5 mph50%30.25 "Hg10 mi
10:35 PM75 °FPassing clouds.6 mph50%30.25 "Hg10 mi
10:15 PM77 °FClear.No wind47%30.25 "Hg10 mi
9:55 PM79 °FClear.8 mph45%30.24 "Hg10 mi
9:35 PM79 °FClear.10 mph45%30.24 "Hg10 mi
9:15 PM79 °FClear.10 mph48%30.23 "Hg10 mi
8:35 PM81 °FSunny.16 mph45%30.21 "Hg10 mi
8:15 PM81 °FSunny.12 mph45%30.20 "Hg10 mi
7:55 PM82 °FSunny.21 mph40%30.19 "Hg10 mi
7:35 PM84 °FSunny.21 mph37%30.18 "Hg10 mi
7:15 PM86 °FSunny.18 mph35%30.17 "Hg10 mi
6:55 PM90 °FSunny.21 mph31%30.16 "Hg10 mi
6:35 PM91 °FSunny.8 mph26%30.16 "Hg10 mi
6:15 PM90 °FScattered clouds.No wind27%30.15 "Hg10 mi
5:55 PM91 °FScattered clouds.18 mph26%30.16 "Hg10 mi
5:35 PM91 °FPassing clouds.7 mph24%30.16 "Hg10 mi
4:55 PM93 °FScattered clouds.14 mph24%30.16 "Hg10 mi
4:35 PM91 °FSunny.10 mph24%30.17 "Hg10 mi
4:15 PM93 °FPartly sunny.13 mph23%30.17 "Hg10 mi
3:55 PM93 °FPartly sunny.6 mph23%30.18 "Hg10 mi
3:35 PM91 °FPassing clouds.13 mph26%30.19 "Hg10 mi
3:15 PM91 °FPartly sunny.15 mph26%30.19 "Hg10 mi
2:55 PM93 °FBroken clouds.17 mph24%30.20 "Hg10 mi
2:35 PM93 °FPartly sunny.14 mph23%30.20 "Hg10 mi
2:15 PM91 °FSunny.3 mph23%30.20 "Hg10 mi
1:55 PM93 °FSunny.6 mph23%30.21 "Hg10 mi
1:35 PM91 °FSunny.7 mph23%30.21 "Hg10 mi
1:15 PM91 °FPassing clouds.8 mph24%30.22 "Hg10 mi
12:55 PM91 °FScattered clouds.7 mph26%30.23 "Hg10 mi
12:35 PM90 °FSunny.5 mph27%30.23 "Hg10 mi
11:55 AM88 °FSunny.No wind31%30.24 "Hg10 mi
11:35 AM88 °FSunny.7 mph31%30.24 "Hg10 mi
11:15 AM88 °FSunny.8 mph31%30.25 "Hg10 mi
10:55 AM86 °FSunny.5 mph33%30.25 "Hg10 mi
10:35 AM84 °FSunny.3 mph37%30.25 "Hg10 mi
9:55 AM82 °FSunny.6 mph42%30.25 "Hg10 mi
9:35 AM81 °FSunny.7 mph45%30.25 "Hg10 mi
9:15 AM81 °FSunny.7 mph45%30.24 "Hg10 mi
8:55 AM79 °FSunny.7 mph48%30.24 "Hg10 mi
8:35 AM77 °FSunny.7 mph51%30.24 "Hg10 mi
8:15 AM75 °FSunny.7 mph54%30.24 "Hg10 mi
7:55 AM73 °FSunny.No wind57%30.24 "Hg10 mi
7:35 AM72 °FSunny.3 mph57%30.23 "Hg10 mi
7:15 AM70 °FSunny.No wind60%30.22 "Hg10 mi
6:55 AM64 °FClear.No wind68%30.21 "Hg10 mi
6:35 AM63 °FClear.5 mph68%30.21 "Hg10 mi
6:15 AM63 °FClear.No wind68%30.20 "Hg10 mi
5:55 AM63 °FClear.5 mph68%30.20 "Hg10 mi
5:35 AM63 °FClear.5 mph68%30.19 "Hg10 mi
5:15 AM63 °FClear.No wind68%30.19 "Hg10 mi
Weather by CustomWeather, © 2014

See weather overviewHow to use our weather pages